sat.trackr.live / text

‹ back to catalog

STARLINK-32832

NORAD 63040 · 2025-034M

PAYLOAD ACTIVE UNKNOWN

§ Identity

Operator
Country
US
Launch date
2025-02-18
Launch site
AFETR
Launch vehicle
Mass (kg)
RCS (m²)

Purposes: comms

External: N2YO · Heavens-Above · Gunter

§ Orbital elements

Epoch: 2026-05-25T01:23:48.136128Z

Period
94.01 min
Inclination
53.1583°
Eccentricity
0.0000892
Mean motion
15.31716861 rev/d
Perigee alt
470.1 km
Apogee alt
471.3 km
Semi-major
6,848.8 km
B*
4.3589e-4
RAAN
263.0867°
Arg perigee
67.6255°
Mean anomaly
292.4841°
Rev number
7,078

§ Raw data

STARLINK-328321 63040U 25034M   26145.05819602  .00013192  00000+0  43589-3 0  99932 63040  53.1583 263.0867 0000892  67.6255 292.4841 15.31716861 70783

JSON: /api/v1/satellites/63040 · /tle

For live sub-satellite position, see the globe view (requires WebGL).

§ Visibility from observer

Set your observer location to see the next 7 days of passes ≥ 10°. The values pass through the URL so the page stays shareable.

No JS? Fill the form by hand. The geolocation button needs JavaScript.